Time,TemperatureF,DewpointF,PressureIn,WindDirection,WindDirectionDegrees,WindSpeedMPH,WindSpeedGustMPH,Humidity,HourlyPrecipIn,Conditions,Clouds,dailyrainin,SolarRadiationWatts/m^2,SoftwareType,DateUTC
2013-04-04 00:22:00,63.0,33.0,-100.00,North,354,7.0,11.0,33,0.00,,,0.00,0.000000,,2013-04-04 07:22:00,
2013-04-04 00:32:00,63.0,33.0,-100.00,North,354,7.0,11.0,33,0.00,,,0.00,0.000000,,2013-04-04 07:32:00,
2013-04-04 00:42:00,63.0,33.0,-100.00,North,354,7.0,11.0,33,0.00,,,0.00,0.000000,,2013-04-04 07:42:00,
2013-04-04 00:51:00,63.0,33.0,-100.00,North,354,7.0,11.0,33,0.00,,,0.00,0.000000,,2013-04-04 07:51:00,
2013-04-04 01:22:00,61.0,33.0,-100.00,NNE,12,12.0,17.0,35,0.00,,,0.00,0.000000,,2013-04-04 08:22:00,
2013-04-04 01:32:00,61.0,33.0,-100.00,NNE,12,12.0,17.0,35,0.00,,,0.00,0.000000,,2013-04-04 08:32:00,
2013-04-04 01:42:00,61.0,33.0,-100.00,NNE,12,12.0,17.0,35,0.00,,,0.00,0.000000,,2013-04-04 08:42:00,
2013-04-04 01:52:00,61.0,33.0,-100.00,NNE,12,12.0,17.0,35,0.00,,,0.00,0.000000,,2013-04-04 08:52:00,
2013-04-04 02:22:00,59.0,32.0,-100.00,NNE,18,13.0,18.0,36,0.00,,,0.00,0.000000,,2013-04-04 09:22:00,
2013-04-04 02:33:00,59.0,32.0,-100.00,NNE,18,13.0,18.0,36,0.00,,,0.00,0.000000,,2013-04-04 09:33:00,
2013-04-04 02:42:00,59.0,32.0,-100.00,NNE,18,13.0,18.0,36,0.00,,,0.00,0.000000,,2013-04-04 09:42:00,
2013-04-04 02:52:00,59.0,32.0,-100.00,NNE,18,13.0,18.0,36,0.00,,,0.00,0.000000,,2013-04-04 09:52:00,
2013-04-04 03:23:00,57.0,32.0,-100.00,North,11,13.0,18.0,38,0.00,,,0.00,0.000000,,2013-04-04 10:23:00,
2013-04-04 03:33:00,57.0,32.0,-100.00,North,11,13.0,18.0,38,0.00,,,0.00,0.000000,,2013-04-04 10:33:00,
2013-04-04 03:42:00,57.0,32.0,-100.00,North,11,13.0,18.0,38,0.00,,,0.00,0.000000,,2013-04-04 10:42:00,
2013-04-04 03:53:00,57.0,32.0,-100.00,North,11,13.0,18.0,38,0.00,,,0.00,0.000000,,2013-04-04 10:53:00,
2013-04-04 04:22:00,59.0,33.0,-100.00,North,358,13.0,25.0,37,0.00,,,0.00,0.000000,,2013-04-04 11:22:00,
2013-04-04 04:32:00,59.0,33.0,-100.00,North,358,13.0,25.0,37,0.00,,,0.00,0.000000,,2013-04-04 11:32:00,
2013-04-04 04:42:00,59.0,33.0,-100.00,North,358,13.0,25.0,37,0.00,,,0.00,0.000000,,2013-04-04 11:42:00,
2013-04-04 04:52:00,59.0,33.0,-100.00,North,358,13.0,25.0,37,0.00,,,0.00,0.000000,,2013-04-04 11:52:00,
2013-04-04 05:22:00,59.0,32.0,-100.00,North,358,11.0,19.0,36,0.00,,,0.00,0.000000,,2013-04-04 12:22:00,
2013-04-04 05:32:00,59.0,32.0,-100.00,North,358,11.0,19.0,36,0.00,,,0.00,0.000000,,2013-04-04 12:32:00,
2013-04-04 05:42:00,59.0,32.0,-100.00,North,358,11.0,19.0,36,0.00,,,0.00,0.000000,,2013-04-04 12:42:00,
2013-04-04 05:52:00,59.0,32.0,-100.00,North,358,11.0,19.0,36,0.00,,,0.00,0.000000,,2013-04-04 12:52:00,
2013-04-04 06:22:00,58.0,32.0,-100.00,NNE,19,10.0,17.0,37,0.00,,,0.00,0.000000,,2013-04-04 13:22:00,
2013-04-04 06:32:00,58.0,32.0,-100.00,NNE,19,10.0,17.0,37,0.00,,,0.00,0.000000,,2013-04-04 13:32:00,
2013-04-04 06:42:00,58.0,32.0,-100.00,NNE,19,10.0,17.0,37,0.00,,,0.00,0.000000,,2013-04-04 13:42:00,
2013-04-04 06:52:00,58.0,32.0,-100.00,NNE,19,10.0,17.0,37,0.00,,,0.00,0.000000,,2013-04-04 13:52:00,
2013-04-04 07:22:00,57.0,32.0,-100.00,North,358,6.0,11.0,38,0.00,,,0.00,3.000000,,2013-04-04 14:22:00,
2013-04-04 07:32:00,57.0,32.0,-100.00,North,358,6.0,11.0,38,0.00,,,0.00,3.000000,,2013-04-04 14:32:00,
2013-04-04 07:42:00,57.0,32.0,-100.00,North,358,6.0,11.0,38,0.00,,,0.00,3.000000,,2013-04-04 14:42:00,
2013-04-04 07:52:00,57.0,32.0,-100.00,North,358,6.0,11.0,38,0.00,,,0.00,3.000000,,2013-04-04 14:52:00,
2013-04-04 08:22:00,58.0,34.0,-100.00,NE,38,3.0,11.0,40,0.00,,,0.00,84.000000,,2013-04-04 15:22:00,
2013-04-04 08:33:00,58.0,34.0,-100.00,NE,38,3.0,11.0,40,0.00,,,0.00,84.000000,,2013-04-04 15:33:00,
2013-04-04 08:43:00,58.0,34.0,-100.00,NE,38,3.0,11.0,40,0.00,,,0.00,84.000000,,2013-04-04 15:43:00,
2013-04-04 08:53:00,58.0,34.0,-100.00,NE,38,3.0,11.0,40,0.00,,,0.00,84.000000,,2013-04-04 15:53:00,
2013-04-04 09:23:00,61.0,36.0,-100.00,ESE,121,0.0,6.0,39,0.00,,,0.00,166.000000,,2013-04-04 16:23:00,
2013-04-04 09:32:00,61.0,36.0,-100.00,ESE,121,0.0,6.0,39,0.00,,,0.00,166.000000,,2013-04-04 16:32:00,
2013-04-04 09:42:00,61.0,36.0,-100.00,ESE,121,0.0,6.0,39,0.00,,,0.00,166.000000,,2013-04-04 16:42:00,
2013-04-04 09:52:00,61.0,36.0,-100.00,ESE,121,0.0,6.0,39,0.00,,,0.00,166.000000,,2013-04-04 16:52:00,
2013-04-04 10:22:00,69.0,36.0,-100.00,NNE,27,3.0,10.0,30,0.00,,,0.00,418.000000,,2013-04-04 17:22:00,
2013-04-04 11:22:00,66.0,30.0,-100.00,WNW,303,19.0,27.0,26,0.00,,,0.00,675.000000,,2013-04-04 18:22:00,
2013-04-04 11:32:00,66.0,30.0,-100.00,WNW,303,19.0,27.0,26,0.00,,,0.00,675.000000,,2013-04-04 18:32:00,
2013-04-04 11:42:00,66.0,30.0,-100.00,WNW,303,19.0,27.0,26,0.00,,,0.00,675.000000,,2013-04-04 18:42:00,
2013-04-04 11:52:00,66.0,30.0,-100.00,WNW,303,19.0,27.0,26,0.00,,,0.00,675.000000,,2013-04-04 18:52:00,
2013-04-04 12:22:00,68.0,30.0,-100.00,NW,315,16.0,28.0,24,0.00,,,0.00,494.000000,,2013-04-04 19:22:00,
2013-04-04 12:32:00,68.0,30.0,-100.00,NW,315,16.0,28.0,24,0.00,,,0.00,494.000000,,2013-04-04 19:32:00,
2013-04-04 12:42:00,68.0,30.0,-100.00,NW,315,16.0,28.0,24,0.00,,,0.00,494.000000,,2013-04-04 19:42:00,
2013-04-04 12:52:00,68.0,30.0,-100.00,NW,315,16.0,28.0,24,0.00,,,0.00,494.000000,,2013-04-04 19:52:00,
2013-04-04 13:22:00,73.0,36.0,-100.00,North,1,14.0,24.0,26,0.00,,,0.00,1011.000000,,2013-04-04 20:22:00,
2013-04-04 13:32:00,73.0,36.0,-100.00,North,1,14.0,24.0,26,0.00,,,0.00,1011.000000,,2013-04-04 20:32:00,
2013-04-04 13:42:00,73.0,36.0,-100.00,North,1,14.0,24.0,26,0.00,,,0.00,1011.000000,,2013-04-04 20:42:00,
2013-04-04 13:52:00,73.0,36.0,-100.00,North,1,14.0,24.0,26,0.00,,,0.00,1011.000000,,2013-04-04 20:52:00,
2013-04-04 14:22:00,70.0,40.0,-100.00,NW,310,21.0,29.0,34,0.00,,,0.00,872.000000,,2013-04-04 21:22:00,
2013-04-04 14:32:00,70.0,40.0,-100.00,NW,310,21.0,29.0,34,0.00,,,0.00,872.000000,,2013-04-04 21:32:00,
2013-04-04 14:42:00,70.0,40.0,-100.00,NW,310,21.0,29.0,34,0.00,,,0.00,872.000000,,2013-04-04 21:42:00,
2013-04-04 14:52:00,70.0,40.0,-100.00,NW,310,21.0,29.0,34,0.00,,,0.00,872.000000,,2013-04-04 21:52:00,
2013-04-04 15:22:00,71.0,40.0,-100.00,NW,323,23.0,39.0,33,0.00,,,0.00,1118.000000,,2013-04-04 22:22:00,
2013-04-04 15:33:00,71.0,40.0,-100.00,NW,323,23.0,39.0,33,0.00,,,0.00,1118.000000,,2013-04-04 22:33:00,
2013-04-04 15:42:00,71.0,40.0,-100.00,NW,323,23.0,39.0,33,0.00,,,0.00,1118.000000,,2013-04-04 22:42:00,
2013-04-04 15:52:00,71.0,40.0,-100.00,NW,323,23.0,39.0,33,0.00,,,0.00,1118.000000,,2013-04-04 22:52:00,
2013-04-04 16:22:00,71.0,41.0,-100.00,NW,320,21.0,35.0,34,0.00,,,0.00,894.000000,,2013-04-04 23:22:00,
2013-04-04 16:32:00,71.0,41.0,-100.00,NW,320,21.0,35.0,34,0.00,,,0.00,894.000000,,2013-04-04 23:32:00,
2013-04-04 16:42:00,71.0,41.0,-100.00,NW,320,21.0,35.0,34,0.00,,,0.00,894.000000,,2013-04-04 23:42:00,
2013-04-04 16:52:00,71.0,41.0,-100.00,NW,320,21.0,35.0,34,0.00,,,0.00,894.000000,,2013-04-04 23:52:00,
2013-04-04 17:22:00,70.0,39.0,-100.00,North,0,13.0,34.0,32,0.00,,,0.00,618.000000,,2013-04-05 00:22:00,
2013-04-04 17:32:00,70.0,39.0,-100.00,North,0,13.0,34.0,32,0.00,,,0.00,618.000000,,2013-04-05 00:32:00,
2013-04-04 17:42:00,70.0,39.0,-100.00,North,0,13.0,34.0,32,0.00,,,0.00,618.000000,,2013-04-05 00:42:00,
2013-04-04 17:52:00,70.0,39.0,-100.00,North,0,13.0,34.0,32,0.00,,,0.00,618.000000,,2013-04-05 00:52:00,
2013-04-04 18:22:00,66.0,38.0,-100.00,NW,321,15.0,28.0,36,0.00,,,0.00,312.000000,,2013-04-05 01:22:00,
2013-04-04 18:32:00,66.0,38.0,-100.00,NW,321,15.0,28.0,36,0.00,,,0.00,312.000000,,2013-04-05 01:32:00,
2013-04-04 18:42:00,66.0,38.0,-100.00,NW,321,15.0,28.0,36,0.00,,,0.00,312.000000,,2013-04-05 01:42:00,
2013-04-04 18:52:00,66.0,38.0,-100.00,NW,321,15.0,28.0,36,0.00,,,0.00,312.000000,,2013-04-05 01:52:00,
2013-04-04 19:22:00,65.0,37.0,-100.00,North,5,12.0,29.0,35,0.00,,,0.00,82.000000,,2013-04-05 02:22:00,
2013-04-04 19:32:00,65.0,37.0,-100.00,North,5,12.0,29.0,35,0.00,,,0.00,82.000000,,2013-04-05 02:32:00,
2013-04-04 19:42:00,65.0,37.0,-100.00,North,5,12.0,29.0,35,0.00,,,0.00,82.000000,,2013-04-05 02:42:00,
2013-04-04 19:52:00,65.0,37.0,-100.00,North,5,12.0,29.0,35,0.00,,,0.00,82.000000,,2013-04-05 02:52:00,
2013-04-04 20:22:00,63.0,38.0,-100.00,NNW,342,11.0,18.0,40,0.00,,,0.00,4.000000,,2013-04-05 03:22:00,
2013-04-04 20:32:00,63.0,38.0,-100.00,NNW,342,11.0,18.0,40,0.00,,,0.00,4.000000,,2013-04-05 03:32:00,
2013-04-04 20:43:00,63.0,38.0,-100.00,NNW,342,11.0,18.0,40,0.00,,,0.00,4.000000,,2013-04-05 03:43:00,
2013-04-04 20:53:00,63.0,38.0,-100.00,NNW,342,11.0,18.0,40,0.00,,,0.00,4.000000,,2013-04-05 03:53:00,
2013-04-04 21:22:00,60.0,37.0,-100.00,North,353,8.0,19.0,42,0.00,,,0.00,0.000000,,2013-04-05 04:22:00,
2013-04-04 21:32:00,60.0,37.0,-100.00,North,353,8.0,19.0,42,0.00,,,0.00,0.000000,,2013-04-05 04:32:00,
2013-04-04 21:42:00,60.0,37.0,-100.00,North,353,8.0,19.0,42,0.00,,,0.00,0.000000,,2013-04-05 04:42:00,
2013-04-04 21:52:00,60.0,37.0,-100.00,North,353,8.0,19.0,42,0.00,,,0.00,0.000000,,2013-04-05 04:52:00,
2013-04-04 22:22:00,61.0,39.0,-100.00,North,351,9.0,13.0,44,0.00,,,0.00,0.000000,,2013-04-05 05:22:00,
2013-04-04 22:32:00,61.0,39.0,-100.00,North,351,9.0,13.0,44,0.00,,,0.00,0.000000,,2013-04-05 05:32:00,
2013-04-04 22:42:00,61.0,39.0,-100.00,North,351,9.0,13.0,44,0.00,,,0.00,0.000000,,2013-04-05 05:42:00,
2013-04-04 22:52:00,61.0,39.0,-100.00,North,351,9.0,13.0,44,0.00,,,0.00,0.000000,,2013-04-05 05:52:00,
2013-04-04 23:22:00,58.0,38.0,-100.00,North,3,7.0,14.0,47,0.00,,,0.00,0.000000,,2013-04-05 06:22:00,
2013-04-04 23:32:00,58.0,38.0,-100.00,North,3,7.0,14.0,47,0.00,,,0.00,0.000000,,2013-04-05 06:32:00,
2013-04-04 23:42:00,58.0,38.0,-100.00,North,3,7.0,14.0,47,0.00,,,0.00,0.000000,,2013-04-05 06:42:00,
2013-04-04 23:52:00,58.0,38.0,-100.00,North,3,7.0,14.0,47,0.00,,,0.00,0.000000,,2013-04-05 06:52:00,